AirNav   Air Wisconsin Up To $57,000 Bonus
 
 1572 users online  

GE05 Gibson Field Airport
LaFayette, Georgia, USA

GOING TO LAFAYETTE?


FAA INFORMATION EFFECTIVE 31 DECEMBER 2020

Location

FAA Identifier: GE05
Lat/Long: 34-36-56.0000N 085-20-35.0000W
34-36.933333N 085-20.583333W
34.6155556,-85.3430556
(estimated)
Elevation: 750 ft. / 229 m (estimated)
From city: 5 miles SSW of LAFAYETTE, GA
Time zone: UTC -5 (UTC -4 during Daylight Saving Time)
Zip code: 30753

Airport Operations

Airport use: Private use. Permission required prior to landing
Activation date: 08/2004
Control tower: no
ARTCC: ATLANTA CENTER
FSS: ANNISTON FLIGHT SERVICE STATION
Attendance: UNATNDD
Wind indicator: yes
Segmented circle: no

Airport Communications

WX AWOS-3 at 9A5 (5 nm NE): 119.775 (706-639-1976)
WX ASOS at RMG (18 nm SE): 119.925 (706-235-3335)

Nearby radio navigation aids

VOR radial/distance  VOR name  Freq  Var
GQOr203/22.8CHOO CHOO VORTAC115.8001E
RMGr337/29.3ROME VORTAC115.4001E

 
NDB name  Hdg/Dist  Freq  Var  ID
FORT PAYNE075/17.342604WFTP ..-. - .--.
DAISY197/34.334102WCQN -.-. --.- -.

Airport Services

Runway Information

Runway 2/20

Dimensions: 2400 x 50 ft. / 732 x 15 m
Surface: turf
RUNWAY 2  RUNWAY 20
Traffic pattern: leftleft

Airport Ownership and Management from official FAA records

Ownership: Privately-owned
Owner: BLUE MT AIRPARK PROPERTY OWNERS
4749 E. BROOMTOWN RD
TRION, GA 30753
Phone (706) 638-2569
Manager: BLUE MT AIRPARK PROPERTY OWNERS
4749 E. BROOMTOWN RD
TRION, GA 30753
Phone (706) 638-2569

Airport Operational Statistics

Aircraft based on the field: 6
Single engine airplanes: 5
Helicopters: 1
    

Additional Remarks

VISITORS WELCOME BUT FILE LANDING AGREEMENT ON LINE - WWW.BLUEMOUNTAINAIRPARK.COM
FOR CD CTC CHATTANOOGA APCH AT 423-855-6478, WHEN APCH CLSD CTC ATLANTA ARTCC AT 770-210-7692.

Instrument Procedures

There are no published instrument procedures at GE05.

Some nearby airports with instrument procedures:

9A5 - Barwick Lafayette Airport (5 nm NE)
KRMG - Richard B. Russell Regional Airport - J.H. Towers Field (18 nm SE)
4A9 - Isbell Field Airport (21 nm SW)
KCZL - Tom B David Field Airport (22 nm SE)
KDNN - Dalton Municipal Airport (24 nm E)
 
Loc | Ops | Rwys | IFR | FBO | Links
Com | Nav | Svcs | Stats | Notes
Area around GE05 (Gibson Field Airport)
 
Road maps at: MapQuest Bing Google
 
Aerial photo
WARNING: Photo may not be current or correct
Aerial photo of GE05 (Gibson Field Airport)
Photo taken 04-Jul-2007
from a C3-B Stearman

Do you have a better or more recent aerial photo of Gibson Field Airport that you would like to share? If so, please send us your photo.

 
Sectional chart

 
Airport distance calculator
Flying to Gibson Field Airport? Find the distance to fly.

From to GE05

Sunrise and sunset
Times for 26-Jan-2021
 Local
(UTC-5)
 Zulu
(UTC)
Morning civil twilight07:1812:18
Sunrise07:4512:45
Sunset18:0323:03
Evening civil twilight18:3023:30

Current date and time
Zulu (UTC)  26-Jan-2021 17:45:08
Local (UTC-5)  26-Jan-2021 12:45:08
 
METAR
K9A5 
5nm NE 
261735Z AUTO 35003KT 10SM CLR 18/04 A2994 RMK AO2 T01820044
KDNN 
13nm NE 
261735Z AUTO 29004KT 10SM CLR 19/03 A2994 RMK AO2
KRMG 
18nm SE 
261653Z AUTO 00000KT 10SM CLR 19/08 A2993 RMK AO2 SLP130 T01890083 $
TAF
KCHA 
26nm N 
261124Z 2612/2712 22005KT P6SM BKN025 FM261300 25005KT P6SM SCT035 SCT120 FM270000 00000KT P6SM BKN200 PROB30 2709/2712 6SM -SHRA BR SCT025 BKN035
NOTAMs
Click for the latest NOTAMs
NOTAMs are issued by the DoD/FAA and will open in a separate window not controlled by AirNav.

 

 
 

Would you like to see your business listed on this page?

 If your business provides an interesting product or service to pilots, flight crews, aircraft, or users of the Gibson Field Airport, you should consider listing it here.  To start the listing process, click on the button below
 
Add a business
 

Other Pages about Gibson Field Airport

bluemountainairpark.googlepages.com
 
Update a link
 
Copyright © AirNav, LLC. All rights reserved. Privacy Policy  Contact